Date String (YYYY-MM-DD hh:mm:ss) UTC,Instrument flags,absolute air pressure of the measurement (hPa),sample flow rate (lpm),inlet stack bypass flow (lpm),air temperature of the measurement (°C),ambient temperature measured by the external sensor (°C),aerosol sample conditioner tube jacket temperature (°C),OPC LED temperature (°C),internal box temperature (°C),relative humidity of the measurement (%),span deviation,mass concentration of particles derived from Lorenz-Mie calculation of OPC scattering (μg/m³),mass concentration of particles derived from Lorenz-Mie calculation of OPC scattering (μg/m³),mass concentration of particles derived from Lorenz-Mie calculation of OPC scattering (μg/m³)
DateTimeUTC,F1_M11,P_M11,Q1_M11,Q2_M11,T1_M11,T2_M11,T3_M11,T4_M11,T5_M11,U1_M11,ZSPAN_M11,X0_M11,X2_M11,X1_M11
2024-03-26 07:00:00,SystemResetWarning,0820.0,4.99,000.00,018.4,017.4,000.0,027.1,020.1,14.4,0000.0,0011.19,0007.91,0007.58
2024-03-26 07:01:00,SystemResetWarning,0820.0,4.99,000.00,018.4,017.4,000.0,027.1,020.1,14.4,0000.0,0010.92,0007.89,0007.55
2024-03-26 07:02:00,SystemResetWarning,0820.0,5.01,000.00,018.3,017.6,000.0,027.1,020.2,14.4,0000.0,0011.12,0007.86,0007.54
2024-03-26 07:03:00,SystemResetWarning,0820.1,5.02,000.00,018.5,018.4,000.0,027.3,020.7,14.3,0000.0,0011.31,0007.83,0007.52
2024-03-26 07:04:00,SystemResetWarning,0820.1,4.99,000.00,018.7,019.0,000.0,027.3,021.1,14.1,0000.0,0011.32,0007.81,0007.50
2024-03-26 07:05:00,SystemResetWarning,0820.2,4.99,000.00,018.8,019.0,000.0,027.3,021.0,14.0,0000.0,0011.50,0007.78,0007.47
2024-03-26 07:06:00,SystemResetWarning,0820.1,5.01,000.00,018.8,018.8,000.0,027.3,020.9,14.0,0000.0,0011.55,0007.78,0007.45
2024-03-26 07:07:00,SystemResetWarning,0820.1,5.00,000.00,018.8,018.6,000.0,027.3,020.7,14.0,0000.0,0011.47,0007.75,0007.43
2024-03-26 07:08:00,SystemResetWarning,0820.0,5.00,000.00,018.8,018.4,000.0,027.2,020.6,14.0,0000.0,0011.40,0007.72,0007.40
2024-03-26 07:09:00,SystemResetWarning,0820.0,5.01,000.00,018.8,018.2,000.0,027.2,020.6,14.0,0000.0,0011.32,0007.67,0007.39
2024-03-26 07:10:00,SystemResetWarning,0820.0,5.01,000.00,018.7,018.1,000.0,027.2,020.5,14.0,0000.0,0011.26,0007.62,0007.36
2024-03-26 07:11:00,SystemResetWarning,0820.0,5.01,000.00,018.7,018.0,000.0,027.2,020.4,14.0,0000.0,0011.25,0007.61,0007.34
2024-03-26 07:12:00,SystemResetWarning,0820.0,5.00,000.00,018.7,017.9,000.0,027.2,020.4,14.0,0000.0,0011.35,0007.58,0007.33
2024-03-26 07:13:00,SystemResetWarning,0820.0,5.00,000.00,018.6,017.8,000.0,027.2,020.3,14.0,0000.0,0011.09,0007.56,0007.30
2024-03-26 07:14:00,SystemResetWarning,0820.2,4.99,000.00,018.6,017.7,000.0,027.2,020.3,14.0,0000.0,0010.85,0007.52,0007.26
2024-03-26 07:15:00,SystemResetWarning,0820.0,4.99,000.00,018.5,017.7,000.0,027.2,020.3,14.1,0000.0,0010.69,0007.49,0007.24
2024-03-26 07:16:00,SystemResetWarning,0820.1,4.99,000.00,018.5,017.6,000.0,027.2,020.2,14.1,0000.0,0010.45,0007.48,0007.21
2024-03-26 07:17:00,SystemResetWarning,0820.1,5.01,000.00,018.5,017.6,000.0,027.2,020.2,14.1,0000.0,0010.35,0007.45,0007.20
2024-03-26 07:18:00,SystemResetWarning,0820.0,5.01,000.00,018.5,017.5,000.0,027.2,020.2,14.1,0000.0,0010.52,0007.42,0007.17
2024-03-26 07:19:00,SystemResetWarning,0820.2,5.01,000.00,018.4,017.5,000.0,027.2,020.1,14.1,0000.0,0010.56,0007.41,0007.15
2024-03-26 07:20:00,SystemResetWarning,0820.0,5.00,000.00,018.4,017.5,000.0,027.1,020.1,14.1,0000.0,0010.64,0007.42,0007.13
2024-03-26 07:21:00,SystemResetWarning,0820.0,4.99,000.00,018.4,017.4,000.0,027.1,020.0,14.1,0000.0,0010.72,0007.44,0007.12
2024-03-26 07:22:00,SystemResetWarning,0820.0,5.00,000.00,018.3,017.4,000.0,027.1,020.0,14.1,0000.0,0010.75,0007.45,0007.12
2024-03-26 07:23:00,SystemResetWarning,0820.1,5.00,000.00,018.3,017.7,000.0,027.2,020.2,14.1,0000.0,0010.51,0007.44,0007.11
2024-03-26 07:24:00,SystemResetWarning,0820.1,5.00,000.00,018.5,018.5,000.0,027.3,020.8,13.9,0000.0,0010.33,0007.42,0007.11
2024-03-26 07:25:00,SystemResetWarning,0820.1,5.00,000.00,018.7,019.0,000.0,027.3,021.1,13.8,0000.0,0010.05,0007.40,0007.12
2024-03-26 07:26:00,SystemResetWarning,0820.2,4.99,000.00,018.8,018.9,000.0,027.3,020.9,13.7,0000.0,0010.20,0007.40,0007.11
2024-03-26 07:27:00,SystemResetWarning,0820.1,5.00,000.00,018.8,018.7,000.0,027.2,020.8,13.7,0000.0,0010.33,0007.42,0007.12
2024-03-26 07:28:00,SystemResetWarning,0820.1,5.00,000.00,018.8,018.5,000.0,027.2,020.6,13.8,0000.0,0010.31,0007.41,0007.11
2024-03-26 07:29:00,SystemResetWarning,0820.1,5.00,000.00,018.7,018.3,000.0,027.2,020.5,13.8,0000.0,0010.12,0007.42,0007.13
2024-03-26 07:30:00,SystemResetWarning,0820.1,5.00,000.00,018.7,018.1,000.0,027.2,020.4,13.9,0000.0,0010.08,0007.42,0007.14
2024-03-26 07:31:00,SystemResetWarning,0820.1,5.00,000.00,018.6,018.0,000.0,027.2,020.4,13.9,0000.0,0010.04,0007.42,0007.15
2024-03-26 07:32:00,SystemResetWarning,0820.1,4.99,000.00,018.6,017.9,000.0,027.2,020.3,13.9,0000.0,0010.03,0007.41,0007.16
2024-03-26 07:33:00,SystemResetWarning,0820.0,5.00,000.00,018.5,017.8,000.0,027.2,020.3,13.9,0000.0,0010.18,0007.41,0007.17
2024-03-26 07:34:00,SystemResetWarning,0820.1,5.00,000.00,018.5,017.7,000.0,027.2,020.2,13.9,0000.0,0010.70,0007.42,0007.18
2024-03-26 07:35:00,SystemResetWarning,0820.1,5.01,000.00,018.5,017.6,000.0,027.2,020.2,14.1,0000.0,0010.74,0007.45,0007.20
2024-03-26 07:36:00,SystemResetWarning,0820.1,5.00,000.00,018.4,017.5,000.0,027.2,020.1,14.0,0000.0,0010.76,0007.47,0007.22
2024-03-26 07:37:00,SystemResetWarning,0820.1,5.00,000.00,018.4,017.5,000.0,027.1,020.1,14.1,0000.0,0010.71,0007.52,0007.25
2024-03-26 07:38:00,SystemResetWarning,0820.1,5.00,000.00,018.4,017.4,000.0,027.1,020.1,14.1,0000.0,0010.46,0007.53,0007.27
2024-03-26 07:39:00,SystemResetWarning,0820.3,4.99,000.00,018.3,017.4,000.0,027.1,020.0,14.2,0000.0,0010.81,0007.57,0007.30
2024-03-26 07:40:00,SystemResetWarning,0820.1,5.00,000.00,018.3,017.3,000.0,027.1,020.0,14.1,0000.0,0010.96,0007.59,0007.30
2024-03-26 07:41:00,SystemResetWarning,0820.1,5.00,000.00,018.3,017.5,000.0,027.2,020.1,14.2,0000.0,0011.15,0007.60,0007.30
2024-03-26 07:42:00,SystemResetWarning,0820.2,5.02,000.00,018.5,018.4,000.0,027.3,020.6,14.0,0000.0,0011.11,0007.60,0007.31
2024-03-26 07:43:00,SystemResetWarning,0820.3,5.00,000.00,018.7,019.0,000.0,027.3,021.0,13.9,0000.0,0011.10,0007.61,0007.32
2024-03-26 07:44:00,SystemResetWarning,0820.2,4.99,000.00,018.8,018.9,000.0,027.3,021.0,13.8,0000.0,0011.03,0007.62,0007.33
2024-03-26 07:45:00,SystemResetWarning,0820.2,5.00,000.00,018.8,018.7,000.0,027.2,020.8,13.7,0000.0,0010.56,0007.64,0007.32
2024-03-26 07:46:00,SystemResetWarning,0820.2,5.00,000.00,018.8,018.5,000.0,027.2,020.7,13.7,0000.0,0010.58,0007.65,0007.31
2024-03-26 07:47:00,SystemResetWarning,0820.2,5.00,000.00,018.7,018.3,000.0,027.2,020.6,13.7,0000.0,0010.57,0007.64,0007.29
2024-03-26 07:48:00,SystemResetWarning,0820.2,4.99,000.00,018.7,018.2,000.0,027.2,020.5,13.7,0000.0,0010.51,0007.62,0007.29
2024-03-26 07:49:00,SystemResetWarning,0820.1,5.00,000.00,018.7,018.1,000.0,027.2,020.4,13.7,0000.0,0010.49,0007.59,0007.25
2024-03-26 07:50:00,SystemResetWarning,0820.2,5.01,000.00,018.6,017.9,000.0,027.2,020.4,13.8,0000.0,0010.16,0007.55,0007.24
2024-03-26 07:51:00,SystemResetWarning,0820.1,5.01,000.00,018.6,017.8,000.0,027.2,020.4,13.8,0000.0,0010.17,0007.52,0007.24
2024-03-26 07:52:00,SystemResetWarning,0820.1,5.00,000.00,018.6,017.8,000.0,027.2,020.3,13.9,0000.0,0010.10,0007.52,0007.25
2024-03-26 07:53:00,SystemResetWarning,0820.4,5.01,000.00,018.5,017.7,000.0,027.2,020.2,13.9,0000.0,0010.15,0007.54,0007.25
2024-03-26 07:54:00,SystemResetWarning,0820.1,5.00,000.00,018.5,017.6,000.0,027.2,020.2,13.9,0000.0,0010.20,0007.56,0007.26
2024-03-26 07:55:00,SystemResetWarning,0820.1,5.00,000.00,018.5,017.6,000.0,027.2,020.2,14.0,0000.0,0010.30,0007.58,0007.26
2024-03-26 07:56:00,SystemResetWarning,0820.1,4.99,000.00,018.4,017.6,000.0,027.1,020.2,14.1,0000.0,0010.43,0007.58,0007.30
2024-03-26 07:57:00,SystemResetWarning,0820.1,5.00,000.00,018.4,017.5,000.0,027.1,020.1,14.1,0000.0,0010.38,0007.57,0007.32
2024-03-26 07:58:00,SystemResetWarning,0820.1,5.01,000.00,018.4,017.5,000.0,027.1,020.1,14.2,0000.0,0010.51,0007.60,0007.35
2024-03-26 07:59:00,SystemResetWarning,0820.1,5.01,000.00,018.4,017.5,000.0,027.1,020.1,14.2,0000.0,0010.69,0007.67,0007.39
